COSMOS 1275 DEB, 12673

Orbit data source: Space-Track

COSMOS 1275 DEB, 12673 is space debris in LEO originally from a launch on Thu, 04 Jun 1981 UTC launched from the Plesetsk Missile And Space Complex (PKMTR). Debris objects in space refer to the collection of defunct objects orbiting the Earth. Examples of debris include non-operational satellites, rocket bodies, and fragments generated from explosions, collisions, or faulty payload assembly.

Loading next visibility...
Identifier
12673, 1981-053AD
Orbit
LEO
Country
Flag of CISCIS
Related business
Manufacturer
Unknown
Mission
Spacecraft
Bus & Motor
Unknown
Mass
Unknown
Launch date (UTC)
1981-06-04 (44 years ago)
Launch vehicle
Unknown
Launch site
Plesetsk Missile And Space Complex (PKMTR)
Object type
Payload
Rocket body
Debris
Shape & HBR
Unknown
Radar Cross Section
Medium (>0.1 m² and <1 m²)

Expand to show TLE details & history
Last TLE update: 9 hours ago

TLE from 9 hours ago
0 COSMOS 1275 DEB
1 12673U 81053AD  25242.83290221  .00003175  00000-0  17558-2 0  9992
2 12673  82.8531  13.4624 0037119 351.1335 123.1325 14.10750280233935
Epoch: 2025-08-30T19:59Z
TLE epoch observation values (Epoch: 2025-08-30T19:59:22.75Z)
Latitude
64.51244°
Longitude
-100.81168°
Altitude
882.688 km
Speed
7.409 km/s
True Right ascension
11h 53m 10s
True Declination
64° 22' 51"
Sunlit
Object was in daylight at epoch
Visualization orbit readout
Latitude
Unknown
Longitude
Unknown
Altitude
Unknown
Speed
Unknown
Apparent Right ascension
Unknown
Apparent Declination
Unknown
Sunlit
N/A
Visualization observer readout
Local Sidereal Time
20:14:01
Azimuth
Unknown
Elevation
Unknown
Doppler factor
Unknown
Orbital elements
Apogee altitude
880.753 km
Perigee altitude
827.064 km
Semi-major axis
7,232.045 km
Eccentricity
0.00371
Inclination
82.8531°
RAAN
13.4624°
Arg. of periapsis
351.1335°
True anomaly
123.48779°
Mean anomaly
123.1325°
Eccentric anomaly
123.31024°
Mean motion
3.529 °/min
Orbital period
102.01 mins
BSTAR
0.0017558
Loading maneuver chart data...
Computing Atmospheric mass density...
Loading historical data...
Loading historical data...
Loading historical data...
Loading historical data...
Loading historical data...
Loading historical data...
Loading historical data...

Documentation

Showing up to 5 results
|